Location: Township of Marena
(38.1747°N, 99.6798°W)
Time: 11:02:46
(UTC+00:00)

Cosmos 2180 Rocket - Pass Details

Date: 26 October 2020
Orbit: 953 x 1005 km, 82.9° (Epoch: 25 November)

Event Time Altitude Azimuth Distance (km) Brightness Sun altitude
Rises 10:52:05 0° 352° (N) 3,694 7.5 -25.5°
Reaches altitude 10° 10:54:37 10° 351° (N) 2,734 6.8 -25.0°
Maximum altitude 11:00:53 82° 265° (W) 982 4.3 -23.8°
Drops below altitude 10° 11:07:01 10° 179° (S) 2,684 6.8 -22.6°
Sets 11:09:30 0° 178° (S) 3,621 7.5 -22.1°
